When you browse on this site, cookies collect data to enhance your experience and personalize the content and advertising you see.
Visit our Privacy Policy to learn more. By continuing to use the site, you agree to this use of cookies and data.

Meteo orario Bekescsaba

Oggi, 11 Agosto, Martedi

Tempo Temperatura Precipitazioni Vento Pressione Umidità
00:00 +24°C° 0 mm 2 m/s 754 mm Hg 69%
01:00 +23°C° 0 mm 2 m/s 754 mm Hg 69%
02:00 +23°C° 0 mm 2 m/s 754 mm Hg 70%
03:00 +21°C° 0 mm 2 m/s 754 mm Hg 71%
04:00 +22°C° 0 mm 1 m/s 753 mm Hg 72%
05:00 +23°C° 0 mm 2 m/s 754 mm Hg 70%
06:00 +24°C° 0 mm 2 m/s 754 mm Hg 68%
07:00 +25°C° 0 mm 2 m/s 755 mm Hg 64%
08:00 +26°C° 0 mm 2 m/s 755 mm Hg 58%
09:00 +28°C° 0 mm 2 m/s 754 mm Hg 53%
10:00 +30°C° 0 mm 2 m/s 754 mm Hg 47%
11:00 +30°C° 0 mm 2 m/s 754 mm Hg 45%
12:00 +31°C° 0 mm 3 m/s 754 mm Hg 42%
13:00 +33°C° 0 mm 3 m/s 754 mm Hg 39%
14:00 +33°C° 0 mm 3 m/s 754 mm Hg 40%
15:00 +33°C° 0 mm 3 m/s 754 mm Hg 41%
16:00 +31°C° 0 mm 3 m/s 753 mm Hg 42%
17:00 +30°C° 0 mm 3 m/s 753 mm Hg 47%
18:00 +28°C° 0 mm 3 m/s 753 mm Hg 52%
19:00 +26°C° 0 mm 2 m/s 753 mm Hg 56%
20:00 +25°C° 0 mm 2 m/s 754 mm Hg 58%
21:00 +24°C° 0 mm 2 m/s 754 mm Hg 60%
22:00 +24°C° 0 mm 2 m/s 754 mm Hg 62%
23:00 +23°C° 0 mm 2 m/s 754 mm Hg 64%

Domani, 12 Agosto, Mercoledi

Tempo Temperatura Precipitazioni Vento Pressione Umidità
00:00 +23°C° 0 mm 2 m/s 754 mm Hg 66%
01:00 +21°C° 0 mm 2 m/s 754 mm Hg 67%
02:00 +21°C° 0 mm 2 m/s 754 mm Hg 70%
03:00 +20°C° 0 mm 2 m/s 754 mm Hg 72%
04:00 +20°C° 0 mm 3 m/s 754 mm Hg 74%
05:00 +21°C° 0 mm 3 m/s 754 mm Hg 73%
06:00 +21°C° 0 mm 3 m/s 754 mm Hg 72%
07:00 +22°C° 0 mm 3 m/s 754 mm Hg 71%
08:00 +25°C° 0 mm 3 m/s 754 mm Hg 64%
09:00 +27°C° 0 mm 3 m/s 754 mm Hg 57%
10:00 +29°C° 0 mm 3 m/s 755 mm Hg 50%
11:00 +30°C° 0 mm 4 m/s 754 mm Hg 47%
12:00 +32°C° 0 mm 4 m/s 754 mm Hg 44%
13:00 +33°C° 0 mm 4 m/s 754 mm Hg 41%
14:00 +32°C° 0 mm 4 m/s 754 mm Hg 42%
15:00 +32°C° 0 mm 5 m/s 754 mm Hg 42%
16:00 +32°C° 0 mm 5 m/s 754 mm Hg 42%
17:00 +29°C° 0 mm 4 m/s 754 mm Hg 46%
18:00 +27°C° 0 mm 4 m/s 754 mm Hg 50%
19:00 +25°C° 0 mm 3 m/s 754 mm Hg 53%
20:00 +22°C° 0 mm 3 m/s 754 mm Hg 57%
21:00 +21°C° 0 mm 3 m/s 755 mm Hg 61%
22:00 +20°C° 0 mm 3 m/s 755 mm Hg 65%
23:00 +20°C° 0 mm 3 m/s 755 mm Hg 67%

Dopodomani, 13 Agosto, Giovedi

Tempo Temperatura Precipitazioni Vento Pressione Umidità
00:00 +19°C° 0 mm 3 m/s 755 mm Hg 70%
01:00 +18°C° 0 mm 3 m/s 755 mm Hg 72%
02:00 +17°C° 0 mm 3 m/s 755 mm Hg 75%
03:00 +17°C° 0 mm 3 m/s 755 mm Hg 78%
04:00 +16°C° 0 mm 3 m/s 755 mm Hg 81%
05:00 +18°C° 0 mm 2 m/s 755 mm Hg 78%
06:00 +19°C° 0 mm 2 m/s 755 mm Hg 74%
07:00 +20°C° 0 mm 2 m/s 755 mm Hg 71%
08:00 +23°C° 0 mm 2 m/s 755 mm Hg 62%
09:00 +25°C° 0 mm 2 m/s 755 mm Hg 53%
10:00 +27°C° 0 mm 1 m/s 755 mm Hg 45%
11:00 +29°C° 0 mm 2 m/s 755 mm Hg 42%
12:00 +30°C° 0 mm 2 m/s 755 mm Hg 40%
13:00 +31°C° 0 mm 2 m/s 754 mm Hg 38%
14:00 +31°C° 0 mm 2 m/s 754 mm Hg 38%
15:00 +31°C° 0 mm 1 m/s 754 mm Hg 39%
16:00 +31°C° 0 mm 1 m/s 753 mm Hg 39%
17:00 +29°C° 0 mm 1 m/s 753 mm Hg 43%
18:00 +27°C° 0 mm 1 m/s 753 mm Hg 48%
19:00 +25°C° 0 mm 1 m/s 753 mm Hg 52%
20:00 +25°C° 0 mm 2 m/s 753 mm Hg 52%
21:00 +24°C° 0 mm 2 m/s 753 mm Hg 53%
22:00 +23°C° 0 mm 2 m/s 753 mm Hg 53%
23:00 +21°C° 0 mm 2 m/s 753 mm Hg 54%

14 Agosto, Venerdi

Tempo Temperatura Precipitazioni Vento Pressione Umidità
00:00 +21°C° 0 mm 2 m/s 753 mm Hg 54%
01:00 +20°C° 0 mm 2 m/s 753 mm Hg 55%
02:00 +20°C° 0 mm 2 m/s 752 mm Hg 56%
03:00 +20°C° 0 mm 2 m/s 752 mm Hg 56%
04:00 +19°C° 0 mm 2 m/s 752 mm Hg 57%
05:00 +20°C° 0 mm 2 m/s 752 mm Hg 55%
06:00 +21°C° 0 mm 2 m/s 752 mm Hg 54%
07:00 +23°C° 0 mm 1 m/s 752 mm Hg 53%
08:00 +25°C° 0 mm 2 m/s 752 mm Hg 48%
09:00 +27°C° 0 mm 2 m/s 752 mm Hg 44%
10:00 +29°C° 0 mm 2 m/s 752 mm Hg 39%
11:00 +30°C° 0 mm 2 m/s 752 mm Hg 36%
12:00 +31°C° 0 mm 1 m/s 751 mm Hg 32%
13:00 +32°C° 0 mm 1 m/s 751 mm Hg 29%
14:00 +31°C° 0 mm 2 m/s 751 mm Hg 32%
15:00 +31°C° 0 mm 2 m/s 750 mm Hg 34%
16:00 +30°C° 0 mm 2 m/s 750 mm Hg 37%
17:00 +29°C° 0.1 mm 2 m/s 750 mm Hg 40%
18:00 +27°C° 0.1 mm 2 m/s 750 mm Hg 44%
19:00 +26°C° 0.1 mm 2 m/s 750 mm Hg 47%
20:00 +25°C° 0 mm 2 m/s 750 mm Hg 48%
21:00 +24°C° 0 mm 1 m/s 750 mm Hg 50%
22:00 +24°C° 0 mm 1 m/s 751 mm Hg 51%
23:00 +23°C° 0.1 mm 1 m/s 751 mm Hg 55%

15 Agosto, Sabato

Tempo Temperatura Precipitazioni Vento Pressione Umidità
00:00 +22°C° 0.1 mm 1 m/s 751 mm Hg 59%
01:00 +21°C° 0.1 mm 2 m/s 750 mm Hg 63%
02:00 +21°C° 0.1 mm 2 m/s 750 mm Hg 66%
03:00 +20°C° 0.1 mm 2 m/s 750 mm Hg 68%
04:00 +20°C° 0.1 mm 2 m/s 750 mm Hg 71%
05:00 +21°C° 0.1 mm 2 m/s 750 mm Hg 72%
06:00 +21°C° 0.1 mm 2 m/s 750 mm Hg 74%
07:00 +23°C° 0.1 mm 2 m/s 751 mm Hg 76%
08:00 +25°C° 0.1 mm 2 m/s 751 mm Hg 72%
09:00 +26°C° 0.1 mm 1 m/s 751 mm Hg 68%
10:00 +27°C° 0.1 mm 1 m/s 751 mm Hg 64%
11:00 +28°C° 0.7 mm 1 m/s 751 mm Hg 64%
12:00 +28°C° 0.7 mm 1 m/s 751 mm Hg 63%
13:00 +28°C° 0.7 mm 2 m/s 750 mm Hg 62%
14:00 +27°C° 1.3 mm 2 m/s 750 mm Hg 64%
15:00 +27°C° 1.3 mm 3 m/s 750 mm Hg 66%
16:00 +26°C° 1.3 mm 4 m/s 750 mm Hg 68%
17:00 +25°C° 0.6 mm 4 m/s 750 mm Hg 73%
18:00 +22°C° 0.6 mm 3 m/s 750 mm Hg 78%
19:00 +21°C° 0.6 mm 3 m/s 750 mm Hg 84%
20:00 +21°C° 0 mm 3 m/s 750 mm Hg 85%
21:00 +20°C° 0 mm 3 m/s 751 mm Hg 86%
22:00 +20°C° 0 mm 3 m/s 751 mm Hg 87%
23:00 +19°C° 0 mm 3 m/s 751 mm Hg 87%

16 Agosto, Domenica

Tempo Temperatura Precipitazioni Vento Pressione Umidità
00:00 +19°C° 0 mm 3 m/s 751 mm Hg 88%
01:00 +18°C° 0 mm 3 m/s 751 mm Hg 88%
02:00 +18°C° 0 mm 3 m/s 751 mm Hg 89%
03:00 +18°C° 0 mm 2 m/s 751 mm Hg 90%
04:00 +17°C° 0 mm 2 m/s 751 mm Hg 91%
05:00 +19°C° 0 mm 3 m/s 752 mm Hg 87%
06:00 +20°C° 0 mm 3 m/s 752 mm Hg 82%
07:00 +21°C° 0 mm 4 m/s 752 mm Hg 77%
08:00 +24°C° 0.1 mm 3 m/s 753 mm Hg 72%
09:00 +25°C° 0.1 mm 3 m/s 753 mm Hg 67%
10:00 +27°C° 0.1 mm 2 m/s 753 mm Hg 62%
11:00 +27°C° 0.2 mm 2 m/s 753 mm Hg 59%
12:00 +28°C° 0.2 mm 2 m/s 753 mm Hg 55%
13:00 +29°C° 0.2 mm 2 m/s 753 mm Hg 52%
14:00 +28°C° 0.2 mm 3 m/s 753 mm Hg 53%
15:00 +28°C° 0.2 mm 3 m/s 753 mm Hg 55%
16:00 +28°C° 0.2 mm 4 m/s 753 mm Hg 56%
17:00 +26°C° 0.2 mm 3 m/s 753 mm Hg 63%
18:00 +24°C° 0.2 mm 3 m/s 754 mm Hg 70%
19:00 +21°C° 0.2 mm 2 m/s 754 mm Hg 77%
20:00 +21°C° 0 mm 2 m/s 754 mm Hg 78%
21:00 +20°C° 0 mm 2 m/s 755 mm Hg 78%
22:00 +19°C° 0 mm 2 m/s 755 mm Hg 79%
23:00 +19°C° 0 mm 2 m/s 755 mm Hg 80%
Mostrare altro